Temperature
13 13 13 13 12 12 12 12 12 11 11 11 11 11 11 11 11 11 11 11 11 11 11 11 11 11 11 11 11 11 11 11 11 11 11 11 11 11
13 12 12 12 12 12 12 12 12 12 11 11 11 11 11 11 11 11 11 11 11 11 11 11 11 11 11 11 11 11 11 11 11 11 11 11 11 11
12 12 12 12 12 12 12 12 12 12 11 11 11 11 11 11 11 11 11 11 11 11 11 11 11 11 11 11 11 11 11 11 11 10 11 11 11 11
12 12 12 12 12 12 12 12 12 11 11 11 11 11 11 11 11 11 11 11 10 10 10 10 10 10 10 10 10 10 10 10 10 10 10 10 10 10
12 12 12 12 12 12 12 12 11 11 11 11 11 11 11 11 10 10 10 10 10 10 10 10 10 10 10 10 10 10 10 10 10 10 10 10 10 10
12 12 12 11 12 11 11 11 11 11 11 11 11 10 10 10 10 10 10 10 10 10 10 10 10 10 10 10 10 10 9 9 9 9 9 9 9 9
12 11 11 11 11 11 11 11 11 11 11 11 10 10 10 10 10 10 10 10 10 9 9 9 9 9 9 9 9 9 9 9 9 9 9 9 9 9
11 11 11 11 11 11 11 11 11 10 10 10 10 10 10 10 10 10 9 9 9 9 9 9 9 9 9 9 9 9 9 9 8 8 9 9 9 9
11 11 11 11 11 10 10 10 10 10 10 10 10 10 10 10 9 9 9 9 9 9 9 9 9 9 8 8 8 8 8 8 8 8 8 8 8 8
10 10 10 10 10 10 10 10 10 10 10 9 9 9 9 9 9 9 9 9 9 9 8 8 8 8 8 8 8 8 8 8 8 8 8 8 8 8
10 10 10 10 10 10 9 9 9 9 9 9 9 9 9 9 9 9 9 9 8 8 8 8 8 8 8 8 8 8 8 8 8 7 7 7 7 7
9 9 9 9 9 9 9 9 9 9 9 9 9 9 9 9 9 9 8 8 8 8 8 8 8 7 7 8 8 8 7 7 7 7 7 7 7 7
9 9 9 9 9 9 9 9 9 9 8 8 8 8 8 8 8 8 8 8 8 8 8 7 7 7 7 7 7 7 7 7 7 7 7 7 6 6
9 9 9 9 9 9 9 8 8 8 8 8 8 8 8 8 8 8 8 8 7 7 7 7 7 7 7 7 6 7 7 7 6 6 6 6 6 6
9 8 8 8 8 8 8 8 8 8 8 8 8 8 8 7 7 7 7 7 7 7 7 7 7 7 6 6 6 6 6 6 6 6 6 6 6 6
8 8 8 8 8 8 7 7 7 7 7 7 7 7 7 7 7 7 7 7 7 7 7 6 6 6 6 6 6 6 6 6 6 6 6 6 6 6
8 8 8 7 7 7 7 7 7 7 7 7 7 7 7 6 7 6 6 7 7 7 6 6 6 6 6 6 6 6 6 6 6 5 5 5 5 5
7 7 7 7 7 7 7 7 7 7 7 6 6 6 6 6 6 6 6 6 6 6 6 6 6 5 5 5 5 5 5 5 5 5 5 5 5 5
6 6 6 6 6 6 6 6 6 6 6 6 6 6 6 6 6 6 6 5 5 6 5 5 5 5 5 5 5 5 5 5 5 4 4 4 5 5
6 6 6 6 6 6 6 6 6 6 6 6 6 5 5 5 5 5 5 5 5 5 5 5 5 4 4 4 4 4 4 4 4 4 4 4 4 4
6 6 6 5 5 5 5 5 5 5 5 5 5 5 5 5 5 5 5 4 4 4 4 4 4 4 4 4 4 4 4 4 4 4 4 4 4 4
5 5 5 5 5 5 5 5 5 5 5 5 5 4 4 4 4 4 4 4 4 4 4 4 4 3 3 3 3 3 4 4 4 3 3 3 3 3
5 5 5 5 5 5 5 5 4 4 4 4 4 4 4 4 4 4 3 3 3 3 3 3 3 3 3 3 3 3 3 3 3 3 3 3 3 3
Wind_Speed
2 2 1 1 1 2 3 4 4 2 1 2 1 1 0 2 2 3 2 3 3 3 3 4 4 4 3 3 3 3 3 2 2 2 2 1 1 1
1 2 1 1 1 1 2 2 3 4 2 2 2 1 1 1 1 2 2 2 2 2 2 2 3 3 4 3 4 4 4 3 2 2 2 2 1 1
1 1 1 1 1 1 2 2 2 3 3 2 1 0 1 1 1 1 1 1 1 1 1 1 2 3 3 3 4 4 4 3 3 3 2 2 2 2
1 1 1 1 1 1 2 2 2 3 4 3 1 1 1 2 1 1 1 1 0 0 0 1 1 2 2 2 2 3 4 4 4 3 3 2 2 2
2 2 2 2 1 1 2 2 2 2 3 3 2 1 1 1 1 0 1 1 1 1 1 1 2 2 2 2 2 2 3 3 4 3 3 3 3 3
2 2 3 3 4 3 2 2 2 2 3 3 2 1 1 0 1 1 0 1 1 1 1 1 1 1 1 2 2 2 2 2 2 3 3 3 3 3
1 2 2 3 4 3 3 3 3 2 2 3 2 1 1 1 2 2 2 0 1 0 0 1 1 1 1 1 0 1 1 2 2 2 2 2 2 2
2 1 1 1 3 4 4 4 5 4 4 3 3 3 3 3 2 2 2 1 2 1 1 1 0 1 1 1 1 1 1 1 1 1 1 1 1 1
2 2 2 1 1 1 2 3 4 5 5 5 4 5 4 5 4 3 3 3 3 2 2 1 1 1 2 2 3 3 2 2 2 1 1 0 1 1
3 3 3 2 1 2 2 2 2 2 4 4 5 5 5 5 5 5 5 3 1 1 2 2 2 2 2 2 3 3 3 2 2 2 1 1 1 1
3 3 3 3 3 3 3 2 1 1 1 3 3 3 4 5 5 3 3 2 1 2 2 3 2 1 1 2 3 4 4 3 3 2 2 2 2 1
2 2 4 4 4 4 3 3 3 2 1 0 0 0 1 3 5 5 5 3 2 3 3 3 2 2 1 2 1 2 3 4 4 4 3 3 2 0
2 2 3 4 4 5 4 4 4 3 2 2 1 0 0 0 1 3 3 4 4 4 3 4 3 2 2 1 2 2 2 2 2 3 4 4 3 2
4 3 3 4 4 4 4 4 4 2 1 1 1 1 2 2 2 2 3 3 3 3 4 5 3 4 3 2 2 2 1 2 2 2 3 4 4 5
3 4 4 3 3 3 4 4 3 2 2 2 3 3 3 3 2 1 1 1 0 1 2 3 3 3 4 4 3 2 2 2 2 2 2 2 3 3
2 3 3 3 2 2 3 3 3 3 4 3 3 2 1 1 2 2 2 2 1 2 2 2 3 4 3 3 3 3 2 2 2 3 3 3 4 5
2 1 1 1 1 1 1 2 2 2 3 2 2 2 2 2 2 2 2 2 2 2 2 1 0 2 3 3 3 3 3 3 3 3 2 3 5 5
2 2 3 3 4 3 3 2 2 3 3 3 3 3 3 3 2 2 1 2 3 3 3 2 1 0 1 2 5 5 4 4 3 3 3 3 5 5
3 4 4 4 4 4 4 3 3 3 2 3 3 3 3 3 2 2 2 2 3 3 3 2 3 3 3 4 4 5 4 3 3 3 4 4 6 6
4 4 5 4 4 4 4 4 3 2 2 3 3 3 3 3 3 3 3 3 3 3 3 3 3 4 5 5 4 3 6 5 4 4 4 4 4 6
4 4 4 4 4 4 4 4 4 4 3 3 3 3 3 3 3 3 3 4 3 3 4 4 5 5 3 1 2 3 3 7 7 4 4 3 3 3
4 4 4 4 4 4 4 3 3 3 3 3 3 3 3 3 3 3 3 3 3 4 4 4 2 2 2 4 5 5 4 3 5 8 7 6 3 4
4 4 4 4 4 3 3 4 4 3 3 3 3 3 3 3 3 3 3 3 3 3 3 3 2 2 2 4 4 4 5 4 3 3 5 8 11 12
Wind_Direction
183 174 163 182 157 152 148 152 151 167 253 272 284 311 59 132 136 123 114 97 87 79 75 63 51 51 58 60 51 41 31 37 62 93 99 110 93 65
172 143 154 191 167 153 157 156 150 160 198 236 238 246 167 123 158 140 141 119 91 91 87 69 59 60 61 59 49 39 37 48 64 70 79 77 61 31
142 150 208 186 172 175 157 149 151 147 173 250 248 251 128 123 108 128 103 93 72 86 92 77 73 68 56 53 51 44 38 46 53 57 59 70 59 33
197 174 224 204 194 201 174 178 183 177 168 192 234 214 209 191 162 150 117 78 93 8 82 92 74 61 49 60 57 49 45 51 57 50 44 49 48 35
204 198 216 185 205 222 199 192 192 173 157 169 199 212 219 174 115 69 53 23 36 23 39 62 68 62 65 84 81 74 64 59 60 56 53 48 46 40
222 213 213 200 205 204 201 193 172 156 154 159 172 185 213 222 141 156 48 349 336 23 69 77 58 48 62 82 88 84 78 74 72 77 67 55 39 30
238 234 230 211 201 194 188 183 169 171 172 170 184 187 211 187 200 190 190 207 320 348 70 17 35 33 356 321 143 132 112 85 80 88 83 60 38 26
227 261 260 236 224 204 191 180 171 177 188 185 196 202 219 212 191 185 177 178 255 256 166 276 66 266 283 232 240 198 188 176 149 123 100 82 38 3
209 227 259 276 253 208 194 188 188 187 180 183 193 211 209 207 183 182 191 194 223 221 159 237 249 241 260 260 237 219 210 201 200 198 209 260 347 334
199 204 217 246 229 186 165 152 181 216 210 202 205 213 208 198 190 191 193 193 246 274 166 204 232 240 265 258 244 223 222 228 237 239 240 245 277 305
217 213 211 216 219 190 159 164 184 272 237 206 210 210 205 194 172 146 150 158 222 249 204 183 211 230 262 257 250 238 228 225 228 242 255 255 259 276
238 241 226 214 207 185 178 178 196 237 238 117 82 266 220 198 186 183 182 184 197 231 216 180 193 179 258 274 262 252 241 236 231 236 247 251 245 171
223 237 244 226 206 194 190 193 209 207 193 182 183 272 333 302 201 199 191 189 198 221 206 174 182 181 194 253 290 265 232 245 246 247 246 246 235 205
223 231 235 236 225 209 206 215 209 178 158 165 202 240 246 247 240 210 205 208 210 215 204 183 183 184 186 214 256 271 263 251 225 231 253 256 249 246
227 229 230 226 224 223 216 213 193 179 180 201 227 239 237 235 223 201 198 165 90 303 210 196 185 182 184 202 216 225 249 264 228 226 242 245 244 243
239 237 234 231 219 232 237 226 206 198 199 213 225 235 232 228 236 219 209 196 212 290 302 232 194 179 198 208 203 224 221 227 237 234 240 255 256 246
209 213 190 208 228 261 266 245 224 212 217 216 212 222 230 231 248 237 211 192 201 234 262 272 164 178 188 193 208 227 224 236 238 228 228 255 258 253
189 208 222 224 225 232 234 238 232 227 224 215 211 214 219 224 234 236 215 199 211 224 228 217 171 89 329 279 218 218 225 233 240 228 215 237 262 260
206 217 223 225 230 232 230 227 232 235 224 219 221 222 222 223 220 220 214 210 218 227 232 214 188 184 227 261 262 216 213 233 230 235 231 231 252 265
216 222 225 226 232 234 230 229 232 231 221 221 226 226 221 219 217 221 218 214 220 230 235 228 212 208 217 233 241 243 222 216 221 239 245 248 260 279
226 230 227 222 227 228 226 224 220 222 221 217 221 222 220 216 223 227 226 228 226 230 237 243 241 227 210 186 255 267 254 237 233 235 234 245 270 277
227 226 229 226 226 226 219 217 220 222 218 218 222 222 220 217 223 225 223 224 227 233 243 257 255 204 195 219 242 255 266 272 265 261 251 242 227 234
231 225 225 226 226 227 217 212 211 219 219 218 219 221 219 222 229 227 227 228 234 243 249 257 254 230 230 231 244 256 262 269 270 275 279 278 262 266
Height
1528 1528 1528 1528 1529 1529 1529 1529 1529 1529 1529 1529 1529 1529 1530 1530 1530 1529 1529 1529 1528 1528 1528 1527 1526 1526 1526 1525 1524 1523 1522 1521 1521 1522 1522 1522 1523 1524
1527 1527 1527 1527 1527 1527 1527 1527 1528 1528 1528 1528 1528 1529 1529 1529 1529 1529 1528 1528 1527 1527 1527 1526 1526 1525 1525 1524 1523 1522 1521 1520 1520 1521 1521 1521 1522 1522
1525 1525 1525 1526 1525 1525 1525 1526 1526 1526 1526 1527 1527 1527 1527 1528 1528 1528 1527 1527 1526 1526 1526 1525 1525 1524 1524 1524 1523 1522 1521 1520 1520 1520 1520 1520 1520 1521
1523 1523 1523 1523 1523 1523 1524 1524 1524 1524 1524 1524 1525 1526 1526 1526 1526 1526 1526 1526 1525 1525 1525 1524 1524 1524 1523 1523 1522 1522 1521 1520 1520 1519 1519 1519 1519 1519
1521 1521 1521 1521 1521 1521 1521 1521 1522 1522 1522 1522 1523 1524 1524 1524 1524 1524 1524 1524 1524 1524 1523 1523 1523 1522 1522 1521 1521 1521 1520 1519 1519 1518 1518 1518 1518 1517
1519 1519 1519 1519 1519 1519 1519 1519 1519 1519 1520 1520 1520 1521 1521 1522 1522 1522 1522 1522 1522 1522 1522 1521 1521 1521 1520 1520 1519 1519 1519 1518 1518 1517 1517 1516 1516 1516
1516 1516 1516 1516 1516 1516 1516 1516 1516 1517 1517 1517 1517 1518 1518 1519 1519 1519 1519 1519 1520 1520 1519 1519 1519 1519 1519 1518 1518 1518 1517 1517 1517 1516 1516 1515 1514 1514
1512 1512 1513 1513 1513 1513 1513 1514 1514 1514 1514 1514 1514 1515 1515 1516 1516 1516 1517 1517 1517 1518 1517 1517 1517 1517 1517 1516 1516 1516 1516 1515 1515 1515 1514 1513 1513 1512
1509 1509 1509 1509 1509 1510 1510 1510 1511 1511 1512 1512 1511 1511 1512 1512 1513 1513 1513 1514 1514 1514 1514 1514 1514 1514 1514 1514 1514 1514 1514 1513 1513 1512 1512 1511 1511 1510
1506 1506 1506 1506 1506 1506 1506 1506 1507 1507 1508 1508 1509 1509 1509 1510 1510 1510 1510 1511 1511 1511 1511 1511 1511 1511 1512 1512 1512 1511 1511 1511 1511 1510 1510 1509 1508 1508
1503 1503 1503 1502 1502 1503 1503 1503 1503 1504 1504 1505 1505 1505 1506 1506 1506 1507 1507 1507 1507 1507 1508 1508 1508 1508 1508 1508 1509 1509 1508 1508 1508 1507 1507 1506 1505 1505
1499 1499 1499 1499 1499 1499 1499 1500 1499 1500 1500 1500 1501 1501 1502 1502 1502 1503 1503 1503 1503 1503 1504 1504 1504 1505 1504 1505 1505 1505 1505 1505 1505 1504 1504 1503 1502 1502
1494 1495 1495 1495 1495 1496 1496 1496 1496 1496 1496 1497 1497 1497 1497 1498 1498 1499 1499 1500 1500 1500 1500 1501 1500 1501 1501 1501 1501 1501 1501 1501 1501 1501 1500 1500 1499 1498
1491 1491 1491 1492 1492 1492 1492 1492 1492 1493 1493 1493 1493 1493 1493 1493 1494 1494 1495 1495 1495 1496 1496 1497 1496 1497 1497 1496 1497 1497 1497 1498 1497 1497 1497 1496 1496 1495
1487 1488 1488 1488 1488 1488 1488 1488 1488 1488 1488 1488 1488 1488 1489 1489 1490 1490 1490 1490 1490 1491 1491 1492 1492 1492 1493 1492 1492 1493 1493 1493 1493 1493 1493 1492 1491 1491
1483 1484 1484 1484 1484 1484 1484 1484 1484 1484 1484 1484 1484 1485 1485 1485 1485 1485 1485 1485 1486 1486 1487 1487 1488 1488 1488 1488 1488 1488 1489 1489 1489 1489 1488 1488 1487 1486
1479 1479 1479 1479 1479 1479 1479 1479 1480 1480 1480 1480 1481 1481 1481 1481 1481 1481 1481 1481 1481 1481 1482 1483 1483 1484 1484 1484 1484 1484 1484 1484 1484 1484 1484 1483 1482 1482
1475 1474 1474 1474 1474 1475 1475 1475 1475 1475 1476 1476 1477 1477 1477 1477 1477 1477 1477 1477 1477 1477 1478 1478 1479 1479 1480 1479 1480 1479 1480 1480 1480 1480 1479 1478 1477 1477
1470 1469 1470 1470 1470 1470 1470 1471 1471 1471 1472 1472 1472 1473 1473 1473 1473 1473 1473 1473 1472 1473 1474 1474 1475 1475 1475 1474 1474 1476 1475 1475 1475 1475 1474 1474 1472 1472
1465 1465 1465 1465 1466 1466 1466 1466 1467 1467 1468 1468 1468 1468 1469 1469 1469 1469 1469 1469 1469 1469 1469 1469 1470 1470 1470 1470 1470 1470 1471 1471 1470 1469 1469 1468 1468 1467
1460 1460 1460 1461 1461 1461 1462 1462 1462 1462 1463 1463 1463 1464 1464 1464 1464 1464 1464 1464 1464 1464 1464 1464 1465 1466 1466 1466 1465 1464 1465 1466 1465 1465 1464 1463 1462 1461
1455 1456 1456 1456 1456 1456 1457 1457 1457 1458 1458 1458 1459 1459 1459 1459 1459 1460 1460 1460 1460 1460 1460 1460 1461 1461 1461 1460 1459 1459 1459 1460 1460 1460 1460 1459 1457 1455
1451 1451 1451 1451 1451 1452 1452 1452 1452 1453 1453 1453 1454 1454 1454 1454 1454 1455 1455 1455 1455 1455 1455 1455 1455 1455 1455 1455 1455 1454 1454 1454 1454 1453 1454 1454 1453 1452